Stevens Point, WI

8:34 PM CST on December 05, 2016 (GMT -0600)
Stevens Point Municipal

Weather History for KSTE - August, 2012

Change the Weather History Date:

Friday, August 17, 2012

  Actual Average Record
Temperature  
Mean Temperature 58 °F -  
Max Temperature 70 °F 80 °F 100 °F (1988)
Min Temperature 46 °F 57 °F 42 °F (1953)
Degree Days  
Heating Degree Days 6    
Growing Degree Days 8 (Base 50)    
Moisture  
Dew Point 42 °F    
Average Humidity 60    
Maximum Humidity 93    
Minimum Humidity 29    
Precipitation  
Precipitation 0.00 in - - ()
Sea Level Pressure  
Sea Level Pressure 30.00 in    
Wind  
Wind Speed 6 mph (NW)    
Max Wind Speed 12 mph    
Max Gust Speed 21 mph    
Visibility 10 miles    
Events      
Averages and records for this station are not official NWS values.
T = Trace of Precipitation, MM = Missing Value Source: NWS Daily Summary

Daily Weather History Graph

Daily Weather History Graph

Search for Another Location

Airport or City:

Trip Planner

Search our weather history database for the weather conditions in past years. The results will help you decide how hot, cold, wet, or windy it might be!

Date:

Astronomy

Aug. 17, 2012 Rise Set
Actual Time 6:03 AM CDT 7:59 PM CDT
Civil Twilight 5:32 AM CDT 8:30 PM CDT
Nautical Twilight 4:53 AM CDT 9:09 PM CDT
Astronomical Twilight 4:11 AM CDT 9:50 PM CDT
Moon 6:09 AM CDT (8/17) 7:38 PM CDT (8/17)
Length of Visible Light 14h 58m
Length of Day
13h 55m
New Moon, 0% of the Moon is Illuminated
Aug 17
New Moon
Aug 24
First Quarter
Aug 31
Full
Sep 8
Last Quarter
Sep 15
New

Hourly Weather History & Observations

Time (CDT) Temp. Dew Point Humidity Pressure Visibility Wind Dir Wind Speed Gust Speed Precip Events Conditions
12:15 AM 57.6 °F 50.0 °F 76% 29.96 in 10.0 mi WNW 8.1 mph - N/A   Overcast
12:35 AM 57.2 °F 50.0 °F 77% 29.96 in 10.0 mi WNW 8.1 mph - N/A   Mostly Cloudy
12:55 AM 56.5 °F 50.0 °F 79% 29.96 in 10.0 mi WNW 9.2 mph - N/A   Scattered Clouds
1:15 AM 56.3 °F 50.0 °F 79% 29.96 in 10.0 mi WNW 6.9 mph - N/A   Mostly Cloudy
1:35 AM 55.6 °F 49.5 °F 80% 29.96 in 10.0 mi WNW 4.6 mph - N/A   Scattered Clouds
1:55 AM 54.9 °F 49.3 °F 81% 29.96 in 10.0 mi WNW 5.8 mph - N/A   Clear
2:15 AM 54.5 °F 49.1 °F 82% 29.96 in 10.0 mi WNW 5.8 mph - N/A   Clear
2:35 AM 54.0 °F 48.7 °F 82% 29.96 in 10.0 mi WNW 4.6 mph - N/A   Clear
2:55 AM 53.4 °F 48.7 °F 84% 29.96 in 10.0 mi WNW 4.6 mph - N/A   Clear
3:15 AM 52.7 °F 48.4 °F 85% 29.96 in 10.0 mi WNW 4.6 mph - N/A   Clear
3:35 AM 52.3 °F 48.2 °F 86% 29.96 in 10.0 mi WNW 4.6 mph - N/A   Clear
3:55 AM 51.8 °F 47.8 °F 86% 29.96 in 10.0 mi WNW 5.8 mph - N/A   Clear
4:15 AM 51.1 °F 47.5 °F 87% 29.97 in 10.0 mi WNW 5.8 mph - N/A   Clear
4:35 AM 50.9 °F 47.5 °F 88% 29.97 in 10.0 mi WNW 6.9 mph - N/A   Clear
4:55 AM 50.4 °F 47.3 °F 89% 29.97 in 10.0 mi WNW 4.6 mph - N/A   Clear
5:15 AM 49.5 °F 46.8 °F 90% 29.98 in 10.0 mi NW 3.5 mph - N/A   Clear
5:35 AM 49.1 °F 46.8 °F 92% 29.98 in 10.0 mi West 3.5 mph - N/A   Clear
5:55 AM 49.1 °F 46.8 °F 92% 29.99 in 10.0 mi Calm Calm - N/A   Clear
6:15 AM 48.4 °F 46.4 °F 93% 30.00 in 10.0 mi Calm Calm - N/A   Clear
6:35 AM 49.1 °F 46.6 °F 91% 30.01 in 10.0 mi Calm Calm - N/A   Clear
6:55 AM 49.3 °F 46.6 °F 90% 30.01 in 10.0 mi WNW 3.5 mph - N/A   Clear
7:15 AM 50.0 °F 46.8 °F 89% 30.02 in 10.0 mi WNW 4.6 mph - N/A   Clear
7:35 AM 50.9 °F 46.9 °F 86% 30.02 in 10.0 mi WNW 5.8 mph - N/A   Clear
7:55 AM 52.2 °F 46.6 °F 81% 30.02 in 10.0 mi NNW 6.9 mph - N/A   Clear
8:15 AM 53.6 °F 46.4 °F 77% 30.02 in 10.0 mi NNW 8.1 mph - N/A   Clear
8:35 AM 54.7 °F 45.5 °F 71% 30.02 in 10.0 mi NNW 9.2 mph - N/A   Clear
8:55 AM 56.1 °F 45.5 °F 68% 30.02 in 10.0 mi NNW 9.2 mph - N/A   Clear
9:15 AM 57.0 °F 44.6 °F 63% 30.02 in 10.0 mi NW 9.2 mph - N/A   Clear
9:35 AM 57.4 °F 43.9 °F 61% 30.03 in 10.0 mi WNW 3.5 mph 9.2 mph N/A   Clear
9:55 AM 59.0 °F 44.1 °F 58% 30.03 in 10.0 mi NW 6.9 mph - N/A   Clear
10:15 AM 59.5 °F 43.9 °F 56% 30.03 in 10.0 mi WNW 5.8 mph - N/A   Clear
10:35 AM 60.1 °F 41.7 °F 51% 30.03 in 10.0 mi WNW 10.4 mph 16.1 mph N/A   Clear
10:55 AM 60.3 °F 40.8 °F 49% 30.03 in 10.0 mi WNW 11.5 mph 17.3 mph N/A   Clear
11:15 AM 61.5 °F 40.6 °F 46% 30.03 in 10.0 mi NW 11.5 mph 16.1 mph N/A   Clear
11:35 AM 62.1 °F 40.1 °F 44% 30.02 in 10.0 mi WNW 9.2 mph - N/A   Clear
11:55 AM 62.8 °F 40.5 °F 44% 30.02 in 10.0 mi WNW 6.9 mph - N/A   Clear
12:15 PM 63.5 °F 39.9 °F 42% 30.02 in 10.0 mi WNW 6.9 mph 19.6 mph N/A   Clear
12:35 PM 64.4 °F 39.0 °F 39% 30.01 in 10.0 mi WNW 9.2 mph 18.4 mph N/A   Clear
12:55 PM 65.1 °F 38.1 °F 37% 30.01 in 10.0 mi NNW 10.4 mph 16.1 mph N/A   Clear
1:15 PM 66.9 °F 37.9 °F 34% 30.01 in 10.0 mi West 6.9 mph 16.1 mph N/A   Clear
1:35 PM 67.1 °F 34.3 °F 30% 30.01 in 10.0 mi WNW 11.5 mph - N/A   Clear
1:55 PM 67.5 °F 34.5 °F 30% 30.01 in 10.0 mi NW 9.2 mph 17.3 mph N/A   Clear
2:15 PM 67.5 °F 35.1 °F 30% 30.01 in 10.0 mi WNW 9.2 mph - N/A   Clear
2:35 PM 68.0 °F 35.6 °F 30% 30.01 in 10.0 mi NW 9.2 mph - N/A   Clear
2:55 PM 68.7 °F 35.6 °F 30% 30.01 in 10.0 mi North 8.1 mph 18.4 mph N/A   Clear
3:15 PM 69.1 °F 36.1 °F 30% 30.01 in 10.0 mi NW 8.1 mph 20.7 mph N/A   Clear
3:35 PM 69.1 °F 36.7 °F 30% 30.01 in 10.0 mi WNW 5.8 mph - N/A   Clear
3:55 PM 69.4 °F 37.4 °F 31% 30.01 in 10.0 mi NNW 10.4 mph 16.1 mph N/A   Clear
4:15 PM 70.0 °F 37.2 °F 30% 30.00 in 10.0 mi West 10.4 mph 16.1 mph N/A   Clear
4:35 PM 69.8 °F 36.3 °F 29% 30.01 in 10.0 mi NW 9.2 mph - N/A   Clear
4:55 PM 69.6 °F 35.8 °F 29% 30.01 in 10.0 mi NW 8.1 mph - N/A   Clear
5:15 PM 70.2 °F 36.1 °F 29% 30.01 in 10.0 mi NNW 5.8 mph - N/A   Clear
5:35 PM 70.0 °F 36.5 °F 29% 30.01 in 10.0 mi WNW 5.8 mph - N/A   Clear
5:55 PM 69.4 °F 36.0 °F 29% 30.01 in 10.0 mi NW 4.6 mph - N/A   Clear
6:15 PM 68.9 °F 35.8 °F 30% 30.01 in 10.0 mi NW 5.8 mph - N/A   Clear
6:35 PM 68.5 °F 36.9 °F 31% 30.01 in 10.0 mi NNW 5.8 mph - N/A   Clear
6:55 PM 68.4 °F 36.5 °F 31% 30.01 in 10.0 mi WNW 4.6 mph - N/A   Clear
7:15 PM 67.3 °F 37.4 °F 33% 30.01 in 10.0 mi NW 3.5 mph - N/A   Clear
7:35 PM 66.2 °F 37.6 °F 35% 30.01 in 10.0 mi Calm Calm - N/A   Clear
7:55 PM 64.0 °F 39.6 °F 41% 30.01 in 10.0 mi Calm Calm - N/A   Clear
8:15 PM 60.3 °F 41.0 °F 49% 30.01 in 10.0 mi Calm Calm - N/A   Clear
8:35 PM 57.0 °F 43.2 °F 60% 30.02 in 10.0 mi Calm Calm - N/A   Clear
8:55 PM 55.8 °F 41.4 °F 58% 30.02 in 10.0 mi Calm Calm - N/A   Clear
9:15 PM 54.3 °F 42.4 °F 64% 30.03 in 10.0 mi Calm Calm - N/A   Clear
9:55 PM 52.0 °F 42.3 °F 69% 30.03 in 10.0 mi Calm Calm - N/A   Clear
10:15 PM 51.6 °F 42.3 °F 70% 30.03 in 10.0 mi Calm Calm - N/A   Clear
10:35 PM 49.3 °F 42.4 °F 77% 30.03 in 10.0 mi Calm Calm - N/A   Clear
10:55 PM 49.5 °F 41.7 °F 75% 30.03 in 10.0 mi Calm Calm - N/A   Clear
11:15 PM 47.3 °F 42.1 °F 82% 30.03 in 10.0 mi Calm Calm - N/A   Clear
11:55 PM 46.4 °F 41.2 °F 82% 30.03 in 10.0 mi Calm Calm - N/A   Clear